カタログに戻る

CZ-3B R/B

運用中HEO
NORAD 52256·ROCKET BODY·🇨🇳 China

打ち上げ Apr 15, 2022 から Xichang Satellite Launch Center

Loading…

次のパス (今後24時間)

TLE

最新Source: Space-Track

元期: Sep 14, 2026, 17:31 UTC

1 52256U 22038B   26257.73043724  .00093847 -25129-6  99659-3 0  9995
2 52256  28.0840 102.0233 5477871  10.7428 357.4262  4.97652325 54748

AllMySatでCZ-3B R/Bをリアルタイム追跡

Download on the App Store